Regional Weather Roundup
Issued by NWS

Home | Current Version | Previous Version | Text Only | Print | Product List | Glossary On
Versions: 1 2 3 4 5 6 7 8 9 10 11 12 13 14 15 16 17 18 19 20 21 22 23 24 25 26 27 28 29 30 31 32 33 34 35 36 37 38 39 40 41 42 43 44 45 46 47 48 49 50
000
ASUS43 KTOP 122208
RWRKS

WEATHER ROUNDUP FOR KANSAS
NATIONAL WEATHER SERVICE GOODLAND KS
400 PM CST TUE DEC 12 2017

NOTE:  "FAIR" INDICATES FEW OR NO CLOUDS BELOW 12,000 FEET WITH NO
SIGNIFICANT WEATHER AND/OR OBSTRUCTIONS TO VISIBILITY.

KSZ001>006-013>018-027>032-041>047-122300-
NORTHWEST KANSAS

CITY           SKY/WX    TMP DP  RH WIND       PRES   REMARKS
GOODLAND       SUNNY     64  17  16 NW12      30.12F
HAYS           SUNNY     59  17  19 SW7       30.12F
HILL CITY      SUNNY     61  18  18 W7        30.10F
RUSSELL        SUNNY     57  23  26 W10       30.10F
$$

KSZ061>065-074>080-084>089-122300-
SOUTHWEST KANSAS

CITY           SKY/WX    TMP DP  RH WIND       PRES   REMARKS
DODGE CITY     SUNNY     61  14  16 W13       30.15F
ELKHART        SUNNY     67  23  18 SW3       30.18F
GARDEN CITY    SUNNY     62  12  14 W10       30.15F
GREAT BEND     SUNNY     58  19  22 W10       30.14F
LIBERAL        SUNNY     65  12  12 W12       30.17F
PRATT          SUNNY     56  15  20 SW9       30.16
$$

KSZ066>073-081>083-090>101-122300-
SOUTHEAST KANSAS

CITY           SKY/WX    TMP DP  RH WIND       PRES   REMARKS
CHANUTE        CLEAR     46  26  45 W7        30.21F
COFFEYVILLE    SUNNY     46  23  40 W5        30.24F
HUTCHINSON     SUNNY     54  24  31 SW8       30.15F
MEDICINE LODGE   N/A     55  22  27 W8        30.18F
NEWTON         SUNNY     50  26  39 SW13      30.17F
PARSONS        CLEAR     46  25  43 SW6       30.23F
WICHITA INTL   SUNNY     54  27  35 SW12      30.18F
WICHITA JABRA  SUNNY     49  28  44 SW12      30.18F
WICHITA MCCONL SUNNY     51  28  40 SW13      30.18F
WINFIELD       SUNNY     49  29  46 SW10      30.23F
$$

KSZ007>012-019>026-033>040-048>060-102>105-122300-
NORTHEAST KANSAS

CITY           SKY/WX    TMP DP  RH WIND       PRES   REMARKS
CONCORDIA      CLEAR     49  25  39 W12       30.11F
EMPORIA        CLEAR     47  27  45 W9        30.16F
LAWRENCE       PTCLDY    44  25  47 W6        30.18F
MANHATTAN      CLEAR     50  28  42 SW10      30.14F
MARYSVILLE     CLEAR     46  28  49 W9        30.11F
OLATHE IND     CLEAR     41  24  51 NW9       30.18F
OLATHE EXE     CLEAR     40  22  48 W7        30.18F
SALINA         SUNNY     54  27  35 SW10      30.14F
TOPEKA BILLARD CLEAR     44  27  51 W7        30.16F
TOPEKA FORBES  CLEAR     45  28  51 W9        30.16F
$$




USA.gov is the U.S. government's official web portal to all federal, state and local government web resources and services.